Location: Grasslands National Park East Block
(49.0708°N, 106.5295°W)
Time: 19:32:45
(UTC-06:00)

SR - Pass Details

Date: 30 October 2019
Orbit: 574 x 882 km, 66.7° (Epoch: 11 November)

Event Time Altitude Azimuth Distance (km) Brightness Sun altitude
Rises 20:44:29 0° 208° (SSW) 3,099 ? -29.2°
Reaches altitude 10° 20:46:44 10° 207° (SSW) 2,231 ? -29.5°
Enters shadow 20:48:11 20° 205° (SSW) 1,693 ? -29.8°
